User: anonymous   Login
Location: Bretagne
(43.8474°N, 0.4650°W)
Time: 21:58:04
(UTC+00:00)
Language:

BREEZE-M DEB (TANK) - Orbit

View from above orbital plane
View from above orbital plane
View from above satellite
View from above satellite

Ground track
Ground track

The orbit is defined by the following mean orbital elements,

1 36501U          26067.58350473 +.00000000 +00000-0 +13238-2 0 00003
2 36501  49.6480 285.3484 4795345  84.8472 326.1509  5.96610689    08
Epoch (UTC): 08 March 2026 14:00:14
Eccentricity: 0.4795345
inclination: 49.6480°
perigee height: 305 km
apogee height: 12621 km
right ascension of ascending node: 285.3484°
argument of perigee: 84.8472°
revolutions per day: 5.96610689
mean anomaly at epoch: 326.1509°

The dashed part of the orbit path shows where the satellite is in the earth's shadow,  

DLR